Time,TemperatureF,DewpointF,PressureIn,WindDirection,WindDirectionDegrees,WindSpeedMPH,WindSpeedGustMPH,Humidity,HourlyPrecipIn,Conditions,Clouds,dailyrainin,SoftwareType,DateUTC
2013-01-01 00:02:00,7.0,3.0,30.13,NW,310,0.0,2.0,82,0.00,,,0.00,,2013-01-01 06:02:00,
2013-01-01 00:12:00,7.0,3.0,30.13,NW,310,0.0,2.0,82,0.00,,,0.00,,2013-01-01 06:12:00,
2013-01-01 00:22:00,7.0,3.0,30.13,WNW,295,0.0,2.0,82,0.00,,,0.00,,2013-01-01 06:22:00,
2013-01-01 00:32:00,7.0,3.0,30.13,NW,317,0.0,3.0,83,0.00,,,0.00,,2013-01-01 06:32:00,
2013-01-01 00:42:00,7.0,3.0,30.13,NW,317,0.0,3.0,83,0.00,,,0.00,,2013-01-01 06:42:00,
2013-01-01 00:52:00,6.0,2.0,30.13,West,277,0.0,4.0,83,0.00,,,0.00,,2013-01-01 06:52:00,
2013-01-01 01:02:00,6.0,2.0,30.13,West,276,0.0,1.0,83,0.00,,,0.00,,2013-01-01 07:02:00,
2013-01-01 01:12:00,5.0,1.0,30.13,WNW,301,0.0,2.0,83,0.00,,,0.00,,2013-01-01 07:12:00,
2013-01-01 01:22:00,5.0,1.0,30.13,WNW,301,0.0,2.0,83,0.00,,,0.00,,2013-01-01 07:22:00,
2013-01-01 01:32:00,5.0,1.0,30.13,WNW,292,0.0,2.0,83,0.00,,,0.00,,2013-01-01 07:32:00,
2013-01-01 01:42:00,5.0,1.0,30.13,WNW,292,0.0,2.0,83,0.00,,,0.00,,2013-01-01 07:42:00,
2013-01-01 01:52:00,5.0,1.0,30.13,WNW,284,0.0,2.0,84,0.00,,,0.00,,2013-01-01 07:52:00,
2013-01-01 02:02:00,4.0,0.0,30.13,WNW,284,0.0,1.0,84,0.00,,,0.00,,2013-01-01 08:02:00,
2013-01-01 02:12:00,4.0,0.0,30.13,WNW,284,0.0,1.0,84,0.00,,,0.00,,2013-01-01 08:12:00,
2013-01-01 02:22:00,4.0,0.0,30.13,WNW,284,0.0,1.0,84,0.00,,,0.00,,2013-01-01 08:22:00,
2013-01-01 02:32:00,4.0,0.0,30.14,WNW,300,2.0,9.0,84,0.00,,,0.00,,2013-01-01 08:32:00,
2013-01-01 02:42:00,4.0,0.0,30.14,NW,322,1.0,5.0,84,0.00,,,0.00,,2013-01-01 08:42:00,
2013-01-01 02:53:00,4.0,0.0,30.14,NW,322,1.0,5.0,84,0.00,,,0.00,,2013-01-01 08:53:00,
2013-01-01 03:02:00,3.0,-1.0,30.15,WNW,286,1.0,4.0,84,0.00,,,0.00,,2013-01-01 09:02:00,
2013-01-01 03:12:00,3.0,-1.0,30.15,WNW,286,1.0,4.0,84,0.00,,,0.00,,2013-01-01 09:12:00,
2013-01-01 03:22:00,3.0,-1.0,30.14,WNW,290,1.0,5.0,84,0.00,,,0.00,,2013-01-01 09:22:00,
2013-01-01 03:32:00,3.0,-1.0,30.14,NW,309,1.0,5.0,84,0.00,,,0.00,,2013-01-01 09:32:00,
2013-01-01 03:42:00,3.0,-1.0,30.14,NW,309,1.0,5.0,84,0.00,,,0.00,,2013-01-01 09:42:00,
2013-01-01 03:52:00,3.0,-1.0,30.14,NW,307,0.0,2.0,84,0.00,,,0.00,,2013-01-01 09:52:00,
2013-01-01 04:02:00,2.0,-2.0,30.14,WNW,298,0.0,2.0,84,0.00,,,0.00,,2013-01-01 10:02:00,
2013-01-01 04:12:00,2.0,-2.0,30.14,WNW,296,0.0,1.0,84,0.00,,,0.00,,2013-01-01 10:12:00,
2013-01-01 04:22:00,2.0,-2.0,30.14,WNW,296,0.0,1.0,84,0.00,,,0.00,,2013-01-01 10:22:00,
2013-01-01 04:32:00,2.0,-2.0,30.14,WNW,290,0.0,2.0,84,0.00,,,0.00,,2013-01-01 10:32:00,
2013-01-01 04:42:00,2.0,-2.0,30.14,WNW,290,0.0,2.0,84,0.00,,,0.00,,2013-01-01 10:42:00,
2013-01-01 04:53:00,2.0,-2.0,30.15,NW,320,1.0,6.0,84,0.00,,,0.00,,2013-01-01 10:53:00,
2013-01-01 05:02:00,2.0,-1.0,30.15,NW,307,1.0,6.0,85,0.00,,,0.00,,2013-01-01 11:02:00,
2013-01-01 05:12:00,2.0,-1.0,30.15,NW,307,1.0,6.0,85,0.00,,,0.00,,2013-01-01 11:12:00,
2013-01-01 05:22:00,2.0,-1.0,30.15,WNW,303,1.0,6.0,85,0.00,,,0.00,,2013-01-01 11:22:00,
2013-01-01 05:32:00,1.0,-2.0,30.16,West,275,0.0,3.0,85,0.00,,,0.00,,2013-01-01 11:32:00,
2013-01-01 05:42:00,1.0,-2.0,30.16,West,275,0.0,3.0,85,0.00,,,0.00,,2013-01-01 11:42:00,
2013-01-01 05:53:00,1.0,-2.0,30.16,WNW,283,0.0,6.0,85,0.00,,,0.00,,2013-01-01 11:53:00,
2013-01-01 06:02:00,1.0,-2.0,30.17,NNW,340,0.0,5.0,85,0.00,,,0.00,,2013-01-01 12:02:00,
2013-01-01 06:12:00,1.0,-2.0,30.17,NNW,340,0.0,5.0,85,0.00,,,0.00,,2013-01-01 12:12:00,
2013-01-01 06:22:00,1.0,-3.0,30.16,NW,321,0.0,5.0,84,0.00,,,0.00,,2013-01-01 12:22:00,
2013-01-01 06:32:00,0.0,-3.0,30.17,WNW,302,0.0,6.0,85,0.00,,,0.00,,2013-01-01 12:32:00,
2013-01-01 06:42:00,0.0,-3.0,30.17,WNW,302,0.0,6.0,85,0.00,,,0.00,,2013-01-01 12:42:00,
2013-01-01 06:53:00,0.0,-3.0,30.18,NW,310,1.0,7.0,85,0.00,,,0.00,,2013-01-01 12:53:00,
2013-01-01 07:02:00,0.0,-4.0,30.18,NW,318,0.0,4.0,84,0.00,,,0.00,,2013-01-01 13:02:00,
2013-01-01 07:12:00,0.0,-4.0,30.18,NW,318,0.0,4.0,84,0.00,,,0.00,,2013-01-01 13:12:00,
2013-01-01 07:22:00,0.0,-4.0,30.18,WSW,257,0.0,4.0,84,0.00,,,0.00,,2013-01-01 13:22:00,
2013-01-01 07:32:00,-1.0,-5.0,30.19,WNW,284,0.0,4.0,84,0.00,,,0.00,,2013-01-01 13:32:00,
2013-01-01 07:42:00,-1.0,-5.0,30.19,WNW,284,0.0,4.0,84,0.00,,,0.00,,2013-01-01 13:42:00,
2013-01-01 07:53:00,-1.0,-5.0,30.19,WNW,284,0.0,3.0,84,0.00,,,0.00,,2013-01-01 13:53:00,
2013-01-01 08:02:00,-1.0,-5.0,30.20,NW,306,1.0,4.0,84,0.00,,,0.00,,2013-01-01 14:02:00,
2013-01-01 08:12:00,-1.0,-5.0,30.20,NW,306,1.0,4.0,84,0.00,,,0.00,,2013-01-01 14:12:00,
2013-01-01 08:22:00,-2.0,-5.0,30.20,West,260,2.0,7.0,85,0.00,,,0.00,,2013-01-01 14:22:00,
2013-01-01 08:32:00,-1.0,-4.0,30.20,WNW,287,0.0,5.0,85,0.00,,,0.00,,2013-01-01 14:32:00,
2013-01-01 08:42:00,-1.0,-4.0,30.20,WNW,287,0.0,5.0,85,0.00,,,0.00,,2013-01-01 14:42:00,
2013-01-01 08:53:00,-1.0,-4.0,30.19,WNW,286,0.0,6.0,85,0.00,,,0.00,,2013-01-01 14:53:00,
2013-01-01 09:03:00,-1.0,-4.0,30.20,West,269,2.0,5.0,85,0.00,,,0.00,,2013-01-01 15:03:00,
2013-01-01 09:12:00,-1.0,-4.0,30.20,West,269,2.0,5.0,85,0.00,,,0.00,,2013-01-01 15:12:00,
2013-01-01 09:22:00,0.0,-4.0,30.19,WNW,290,0.0,7.0,84,0.00,,,0.00,,2013-01-01 15:22:00,
2013-01-01 09:33:00,0.0,-4.0,30.19,West,275,2.0,6.0,84,0.00,,,0.00,,2013-01-01 15:33:00,
2013-01-01 09:42:00,0.0,-4.0,30.19,West,275,2.0,6.0,84,0.00,,,0.00,,2013-01-01 15:42:00,
2013-01-01 09:53:00,1.0,-3.0,30.19,WNW,288,4.0,7.0,83,0.00,,,0.00,,2013-01-01 15:53:00,
2013-01-01 10:02:00,2.0,-2.0,30.19,West,273,1.0,5.0,83,0.00,,,0.00,,2013-01-01 16:02:00,
2013-01-01 10:12:00,2.0,-2.0,30.19,West,273,1.0,5.0,83,0.00,,,0.00,,2013-01-01 16:12:00,
2013-01-01 10:22:00,2.0,-2.0,30.19,NW,309,1.0,8.0,82,0.00,,,0.00,,2013-01-01 16:22:00,
2013-01-01 10:33:00,3.0,-1.0,30.18,NW,316,3.0,6.0,81,0.00,,,0.00,,2013-01-01 16:33:00,
2013-01-01 10:42:00,3.0,-1.0,30.18,NW,316,3.0,6.0,81,0.00,,,0.00,,2013-01-01 16:42:00,
2013-01-01 10:53:00,4.0,-1.0,30.18,NW,313,3.0,7.0,81,0.00,,,0.00,,2013-01-01 16:53:00,
2013-01-01 11:02:00,5.0,0.0,30.17,WNW,287,1.0,5.0,80,0.00,,,0.00,,2013-01-01 17:02:00,
2013-01-01 11:12:00,5.0,0.0,30.17,WNW,287,1.0,5.0,80,0.00,,,0.00,,2013-01-01 17:12:00,
2013-01-01 11:22:00,6.0,1.0,30.16,WNW,287,3.0,6.0,78,0.00,,,0.00,,2013-01-01 17:22:00,
2013-01-01 11:33:00,5.0,0.0,30.16,NW,306,2.0,7.0,78,0.00,,,0.00,,2013-01-01 17:33:00,
2013-01-01 11:43:00,5.0,0.0,30.16,NW,306,2.0,7.0,78,0.00,,,0.00,,2013-01-01 17:43:00,
2013-01-01 11:53:00,6.0,0.0,30.16,NW,310,4.0,7.0,77,0.00,,,0.00,,2013-01-01 17:53:00,
2013-01-01 12:03:00,7.0,2.0,30.16,WNW,300,1.0,5.0,78,0.00,,,0.00,,2013-01-01 18:03:00,
2013-01-01 12:12:00,7.0,2.0,30.16,WNW,300,1.0,5.0,78,0.00,,,0.00,,2013-01-01 18:12:00,
2013-01-01 12:22:00,8.0,2.0,30.15,West,277,0.0,5.0,77,0.00,,,0.00,,2013-01-01 18:22:00,
2013-01-01 12:33:00,8.0,2.0,30.15,West,271,2.0,8.0,76,0.00,,,0.00,,2013-01-01 18:33:00,
2013-01-01 12:42:00,8.0,2.0,30.15,West,271,2.0,8.0,76,0.00,,,0.00,,2013-01-01 18:42:00,
2013-01-01 12:53:00,8.0,2.0,30.15,West,271,2.0,8.0,76,0.00,,,0.00,,2013-01-01 18:53:00,
2013-01-01 13:02:00,9.0,3.0,30.14,WSW,251,2.0,6.0,75,0.00,,,0.00,,2013-01-01 19:02:00,
2013-01-01 13:12:00,9.0,3.0,30.14,WSW,251,2.0,6.0,75,0.00,,,0.00,,2013-01-01 19:12:00,
2013-01-01 13:22:00,10.0,3.0,30.14,SSW,207,1.0,6.0,74,0.00,,,0.00,,2013-01-01 19:22:00,
2013-01-01 13:32:00,11.0,4.0,30.14,NW,304,3.0,6.0,72,0.00,,,0.00,,2013-01-01 19:32:00,
2013-01-01 13:42:00,11.0,4.0,30.14,NW,304,3.0,6.0,72,0.00,,,0.00,,2013-01-01 19:42:00,
2013-01-01 13:53:00,11.0,3.0,30.14,West,259,4.0,8.0,71,0.00,,,0.00,,2013-01-01 19:53:00,
2013-01-01 14:02:00,12.0,4.0,30.13,West,264,1.0,6.0,70,0.00,,,0.00,,2013-01-01 20:02:00,
2013-01-01 14:12:00,12.0,4.0,30.13,West,264,1.0,6.0,70,0.00,,,0.00,,2013-01-01 20:12:00,
2013-01-01 14:23:00,12.0,4.0,30.13,WSW,247,2.0,7.0,69,0.00,,,0.00,,2013-01-01 20:23:00,
2013-01-01 14:32:00,13.0,4.0,30.13,WSW,253,4.0,7.0,68,0.00,,,0.00,,2013-01-01 20:32:00,
2013-01-01 14:42:00,13.0,4.0,30.13,WSW,253,4.0,7.0,68,0.00,,,0.00,,2013-01-01 20:42:00,
2013-01-01 14:53:00,13.0,4.0,30.12,SW,219,2.0,8.0,67,0.00,,,0.00,,2013-01-01 20:53:00,
2013-01-01 15:03:00,13.0,4.0,30.12,SSW,203,3.0,8.0,68,0.00,,,0.00,,2013-01-01 21:03:00,
2013-01-01 15:12:00,12.0,4.0,30.12,SSW,206,1.0,6.0,69,0.00,,,0.00,,2013-01-01 21:12:00,
2013-01-01 15:22:00,12.0,4.0,30.12,SSW,206,1.0,6.0,69,0.00,,,0.00,,2013-01-01 21:22:00,
2013-01-01 15:33:00,12.0,4.0,30.12,SW,215,2.0,9.0,70,0.00,,,0.00,,2013-01-01 21:33:00,
2013-01-01 15:42:00,12.0,4.0,30.12,SW,215,2.0,9.0,70,0.00,,,0.00,,2013-01-01 21:42:00,
2013-01-01 15:53:00,11.0,3.0,30.12,SSW,195,3.0,9.0,70,0.00,,,0.00,,2013-01-01 21:53:00,
2013-01-01 16:02:00,11.0,3.0,30.12,SSW,213,1.0,5.0,71,0.00,,,0.00,,2013-01-01 22:02:00,
2013-01-01 16:12:00,11.0,3.0,30.12,SSW,213,1.0,5.0,71,0.00,,,0.00,,2013-01-01 22:12:00,
2013-01-01 16:22:00,11.0,3.0,30.12,SSW,207,1.0,5.0,71,0.00,,,0.00,,2013-01-01 22:22:00,
2013-01-01 16:32:00,10.0,3.0,30.12,South,188,0.0,4.0,72,0.00,,,0.00,,2013-01-01 22:32:00,
2013-01-01 16:42:00,10.0,3.0,30.12,South,188,0.0,4.0,72,0.00,,,0.00,,2013-01-01 22:42:00,
2013-01-01 16:52:00,9.0,2.0,30.12,South,188,0.0,1.0,73,0.00,,,0.00,,2013-01-01 22:52:00,
2013-01-01 17:02:00,8.0,1.0,30.12,South,188,0.0,1.0,74,0.00,,,0.00,,2013-01-01 23:02:00,
2013-01-01 17:12:00,8.0,1.0,30.12,South,188,0.0,1.0,74,0.00,,,0.00,,2013-01-01 23:12:00,
2013-01-01 17:22:00,8.0,2.0,30.11,South,188,0.0,1.0,75,0.00,,,0.00,,2013-01-01 23:22:00,
2013-01-01 17:32:00,7.0,1.0,30.11,South,189,0.0,1.0,76,0.00,,,0.00,,2013-01-01 23:32:00,
2013-01-01 17:42:00,7.0,1.0,30.11,South,189,0.0,1.0,76,0.00,,,0.00,,2013-01-01 23:42:00,
2013-01-01 17:53:00,7.0,1.0,30.11,South,188,0.0,0.0,77,0.00,,,0.00,,2013-01-01 23:53:00,
2013-01-01 18:02:00,6.0,1.0,30.11,South,189,0.0,1.0,78,0.00,,,0.00,,2013-01-02 00:02:00,
2013-01-01 18:12:00,6.0,1.0,30.11,South,189,0.0,1.0,78,0.00,,,0.00,,2013-01-02 00:12:00,
2013-01-01 18:22:00,6.0,1.0,30.11,South,188,0.0,0.0,78,0.00,,,0.00,,2013-01-02 00:22:00,
2013-01-01 18:32:00,6.0,0.0,30.11,South,189,0.0,0.0,77,0.00,,,0.00,,2013-01-02 00:32:00,
2013-01-01 18:42:00,6.0,0.0,30.11,South,189,0.0,0.0,77,0.00,,,0.00,,2013-01-02 00:42:00,
2013-01-01 18:53:00,6.0,1.0,30.12,South,188,0.0,1.0,78,0.00,,,0.00,,2013-01-02 00:53:00,
2013-01-01 19:02:00,6.0,1.0,30.12,South,189,0.0,0.0,78,0.00,,,0.00,,2013-01-02 01:02:00,
2013-01-01 19:12:00,6.0,1.0,30.12,South,189,0.0,0.0,78,0.00,,,0.00,,2013-01-02 01:12:00,
2013-01-01 19:22:00,5.0,0.0,30.12,South,188,0.0,0.0,79,0.00,,,0.00,,2013-01-02 01:22:00,
2013-01-01 19:32:00,5.0,0.0,30.12,WSW,253,0.0,2.0,79,0.00,,,0.00,,2013-01-02 01:32:00,
2013-01-01 19:42:00,5.0,0.0,30.12,WSW,253,0.0,2.0,79,0.00,,,0.00,,2013-01-02 01:42:00,
2013-01-01 19:52:00,6.0,1.0,30.12,West,263,0.0,5.0,78,0.00,,,0.00,,2013-01-02 01:52:00,
2013-01-01 20:02:00,6.0,0.0,30.11,WSW,237,0.0,1.0,77,0.00,,,0.00,,2013-01-02 02:02:00,
2013-01-01 20:12:00,6.0,0.0,30.11,WSW,237,0.0,1.0,77,0.00,,,0.00,,2013-01-02 02:12:00,
2013-01-01 20:22:00,4.0,-2.0,30.11,WSW,237,0.0,0.0,77,0.00,,,0.00,,2013-01-02 02:22:00,
2013-01-01 20:32:00,3.0,-2.0,30.11,WSW,238,0.0,0.0,78,0.00,,,0.00,,2013-01-02 02:32:00,
2013-01-01 20:42:00,3.0,-2.0,30.11,WSW,238,0.0,0.0,78,0.00,,,0.00,,2013-01-02 02:42:00,
2013-01-01 20:53:00,2.0,-3.0,30.11,WSW,238,0.0,0.0,79,0.00,,,0.00,,2013-01-02 02:53:00,
2013-01-01 21:02:00,1.0,-4.0,30.11,WSW,238,0.0,0.0,80,0.00,,,0.00,,2013-01-02 03:02:00,
2013-01-01 21:12:00,1.0,-4.0,30.11,WSW,238,0.0,0.0,80,0.00,,,0.00,,2013-01-02 03:12:00,
2013-01-01 21:22:00,1.0,-3.0,30.10,WSW,237,0.0,0.0,81,0.00,,,0.00,,2013-01-02 03:22:00,
2013-01-01 21:32:00,1.0,-3.0,30.11,WSW,237,0.0,0.0,82,0.00,,,0.00,,2013-01-02 03:32:00,
2013-01-01 21:42:00,1.0,-3.0,30.11,WSW,237,0.0,0.0,82,0.00,,,0.00,,2013-01-02 03:42:00,
2013-01-01 21:53:00,0.0,-4.0,30.10,WSW,237,0.0,0.0,82,0.00,,,0.00,,2013-01-02 03:53:00,
2013-01-01 22:02:00,0.0,-4.0,30.10,WSW,237,0.0,0.0,83,0.00,,,0.00,,2013-01-02 04:02:00,
2013-01-01 22:12:00,0.0,-4.0,30.10,WSW,237,0.0,0.0,83,0.00,,,0.00,,2013-01-02 04:12:00,
2013-01-01 22:22:00,0.0,-4.0,30.09,WSW,237,0.0,0.0,84,0.00,,,0.00,,2013-01-02 04:22:00,
2013-01-01 22:32:00,1.0,-3.0,30.10,WSW,237,0.0,0.0,84,0.00,,,0.00,,2013-01-02 04:32:00,
2013-01-01 22:42:00,1.0,-3.0,30.10,WSW,237,0.0,0.0,84,0.00,,,0.00,,2013-01-02 04:42:00,
2013-01-01 22:52:00,2.0,-2.0,30.09,WSW,238,0.0,2.0,84,0.00,,,0.00,,2013-01-02 04:52:00,
2013-01-01 23:03:00,3.0,-1.0,30.10,SSW,205,0.0,2.0,83,0.00,,,0.00,,2013-01-02 05:03:00,
2013-01-01 23:12:00,3.0,-1.0,30.10,SSW,205,0.0,2.0,83,0.00,,,0.00,,2013-01-02 05:12:00,
2013-01-01 23:22:00,3.0,1.0,30.09,SSW,205,0.0,1.0,92,0.00,,,0.00,,2013-01-02 05:22:00,
2013-01-01 23:33:00,3.0,-1.0,30.09,SSW,205,0.0,0.0,82,0.00,,,0.00,,2013-01-02 05:33:00,
2013-01-01 23:42:00,3.0,-1.0,30.09,SSW,205,0.0,0.0,82,0.00,,,0.00,,2013-01-02 05:42:00,
2013-01-01 23:53:00,4.0,0.0,30.09,SSW,205,0.0,0.0,82,0.00,,,0.00,,2013-01-02 05:53:00,